Flag for U.S.A. Weather past 2 weeks in Carson City, Nevada, U.S.A.

Now
63 °F

Passing clouds.


Feels Like: 63 °F
Forecast: 45 / 59 °F
Wind: 10 mph from South

Location: Reno Tahoe International Airport

Current Time: Oct 24, 2014 at 9:46:07 PM

Latest Report: Oct 24, 2014 at 8:55 PM


Visibility: 10 mi

Pressure: 29.90 "Hg

Humidity: 27%

Dew point: 28 °F

Location of Carson CityLocation

Historic Weather in Carson City — Graph

°F

Carson City temperature yesterday

Maximum temperature yesterday: 71 °F (at 1:55 PM)
Minimum temperature yesterday: 45 °F (at 6:55 AM)
Average temperature yesterday: 58 °F

Past Weeks' High & Low Weather Summary

 TemperatureHumidityPressure
High84 °F (Oct 11, 4:55 PM)76% (Oct 24, 6:55 AM)30.23 "Hg (Oct 24, 6:55 AM)
Low37 °F (Oct 24, 6:55 AM)9% (Oct 11, 4:55 PM)29.60 "Hg (Oct 14, 11:55 PM)
Average58 °F38%29.96 "Hg
* Reported Oct 9 8:55 PM — Oct 24 8:55 PM, Carson City, Weather by CustomWeather, © 2014

Note: Actual official high and low records may vary slightly from our data, if they occured in-between our weather recording intervals... More about our weather records

Advertising

Carson City weather history for previous 24 hours

 ConditionsComfort  
Time TempWeatherWind HumidityBarometerVisibility
8:55 PM
Oct 24
63 °FPassing clouds.10 mph27%29.90 "Hg10 mi
7:55 PM66 °FPassing clouds.13 mph20%29.89 "Hg10 mi
6:55 PM69 °FScattered clouds.8 mph17%29.87 "Hg10 mi
5:55 PM74 °FBroken clouds.15 mph13%29.84 "Hg10 mi
4:55 PM77 °FPassing clouds.17 mph11%29.83 "Hg10 mi
3:55 PM80 °FPartly sunny.14 mph10%29.83 "Hg10 mi
2:55 PM80 °FPassing clouds.18 mph10%29.84 "Hg10 mi
1:55 PM80 °FPassing clouds.23 mph10%29.85 "Hg10 mi
12:55 PM74 °FPassing clouds.No wind17%29.89 "Hg10 mi
11:55 AM65 °FSunny.No wind28%29.95 "Hg10 mi
10:55 AM57 °FSunny.No wind41%30.01 "Hg10 mi
9:55 AM50 °FPassing clouds.3 mph50%30.02 "Hg10 mi
8:55 AM43 °FPassing clouds.No wind62%30.04 "Hg10 mi
7:55 AM39 °FClear.No wind70%30.04 "Hg10 mi
6:55 AM37 °FPassing clouds.No wind76%30.03 "Hg10 mi
5:55 AM39 °FClear.No wind70%30.00 "Hg10 mi
4:55 AM40 °FClear.No wind70%29.98 "Hg10 mi
3:55 AM43 °FClear.No wind58%29.99 "Hg10 mi
2:55 AM43 °FClear.3 mph60%29.99 "Hg10 mi
1:55 AM45 °FClear.No wind56%30.00 "Hg10 mi
12:55 AM47 °FClear.No wind52%30.01 "Hg10 mi
11:55 PM
Oct 23
50 °FClear.3 mph48%29.98 "Hg10 mi
10:55 PM51 °FClear.5 mph44%29.99 "Hg10 mi
9:55 PM55 °FPassing clouds.6 mph39%30.00 "Hg10 mi
Weather by CustomWeather, © 2014

See weather overviewHow to use our weather pages